Weather History for KDBN - June, 2013

Change the Weather History Date:

Wednesday, June 12, 2013

  Actual Average Record
Temperature  
Mean Temperature 85 °F -  
Max Temperature 95 °F 90 °F 101 °F (1931)
Min Temperature 75 °F 63 °F 53 °F (1977)
Cooling Degree Days 20    
Growing Degree Days 35 (Base 50)    
Moisture  
Dew Point 72 °F    
Average Humidity 66    
Maximum Humidity 100    
Minimum Humidity 36    
Precipitation  
Precipitation 0.00 in - - ()
Sea Level Pressure  
Sea Level Pressure 30.03 in    
Wind  
Wind Speed 4 mph (WNW)    
Max Wind Speed 10 mph    
Max Gust Speed 16 mph    
Visibility 10 miles    
Events      
Averages and records for this station are not official NWS values.
T = Trace of Precipitation, MM = Missing Value Source: NWS Daily Summary

Daily Weather History Graph

Daily Weather History Graph

Search for Another Location

Airport or City:

Trip Planner

Search our weather history database for the weather conditions in past years. The results will help you decide how hot, cold, wet, or windy it might be!

Date:

Astronomy

Jun. 12, 2013 Rise Set
Actual Time 6:23 AM EDT 8:39 PM EDT
Civil Twilight 5:55 AM EDT 9:08 PM EDT
Nautical Twilight 5:20 AM EDT 9:43 PM EDT
Astronomical Twilight 4:42 AM EDT 10:21 PM EDT
Moon 9:53 AM EDT (6/12) 11:26 PM EDT (6/12)
Length of Visible Light 15h 13m
Length of Day
14h 16m
Waxing Crescent, 14% of the Moon is Illuminated
Jun 12
Waxing Crescent
Jun 16
First Quarter
Jun 23
Full
Jun 30
Last Quarter
Jul 8
New

Hourly Weather History & Observations

Time (EDT) Temp. Heat Index Dew Point Humidity Pressure Visibility Wind Dir Wind Speed Gust Speed Precip Events Conditions
12:15 AM 77.0 °F - 71.6 °F 83% 30.05 in 10.0 mi Calm Calm - N/A   Clear
12:35 AM 77.0 °F - 75.2 °F 94% 30.05 in 10.0 mi WSW 3.5 mph - N/A   Clear
12:55 AM 77.0 °F - 73.4 °F 89% 30.05 in 10.0 mi WSW 3.5 mph - N/A   Clear
1:15 AM 77.0 °F - 77.0 °F 100% 30.04 in 10.0 mi WSW 3.5 mph - N/A   Clear
1:35 AM 77.0 °F - 71.6 °F 83% 30.04 in 10.0 mi WSW 4.6 mph - N/A   Clear
1:55 AM 77.0 °F - 71.6 °F 83% 30.03 in 10.0 mi West 4.6 mph - N/A   Clear
2:15 AM 77.0 °F - 71.6 °F 83% 30.03 in 10.0 mi West 4.6 mph - N/A   Clear
2:35 AM 77.0 °F - 73.4 °F 89% 30.03 in 10.0 mi West 5.8 mph - N/A   Clear
2:55 AM 77.0 °F - 71.6 °F 83% 30.02 in 10.0 mi West 5.8 mph - N/A   Clear
3:15 AM 77.0 °F - 71.6 °F 83% 30.02 in 10.0 mi West 5.8 mph - N/A   Clear
3:35 AM 77.0 °F - 77.0 °F 100% 30.01 in 10.0 mi West 4.6 mph - N/A   Clear
3:55 AM 75.2 °F - 75.2 °F 100% 30.01 in 10.0 mi West 4.6 mph - N/A   Clear
4:15 AM - - - N/A% 30.01 in 10.0 mi West 5.8 mph - N/A   Clear
4:35 AM - - - N/A% 30.01 in 10.0 mi West 5.8 mph - N/A   Clear
4:55 AM - - - N/A% 30.01 in 10.0 mi West 4.6 mph - N/A   Clear
5:15 AM - - - N/A% 30.01 in 10.0 mi West 3.5 mph - N/A   Clear
5:35 AM - - - N/A% 30.01 in 10.0 mi West 3.5 mph - N/A   Clear
5:55 AM - - - N/A% 30.02 in 10.0 mi Calm Calm - N/A   Clear
6:15 AM - - - N/A% 30.02 in 10.0 mi WSW 3.5 mph - N/A   Clear
6:35 AM - - - N/A% 30.04 in 7.0 mi WSW 3.5 mph - N/A   Clear
6:55 AM - - - N/A% 30.04 in 7.0 mi West 3.5 mph - N/A   Clear
7:15 AM - - - N/A% 30.05 in 7.0 mi Calm Calm - N/A   Clear
7:35 AM - - - N/A% 30.05 in 10.0 mi WNW 4.6 mph - N/A   Clear
7:55 AM - - - N/A% 30.06 in 10.0 mi West 4.6 mph - N/A   Clear
8:15 AM 78.8 °F - 78.8 °F 100% 30.06 in 10.0 mi West 5.8 mph - N/A   Clear
8:35 AM 80.6 °F 89.3 °F 80.6 °F 100% 30.06 in 10.0 mi West 6.9 mph - N/A   Clear
8:55 AM 82.4 °F 96.1 °F 82.4 °F 100% 30.06 in 10.0 mi WNW 5.8 mph - N/A   Clear
9:15 AM 82.4 °F 96.1 °F 82.4 °F 100% 30.06 in 10.0 mi WNW 4.6 mph - N/A   Clear
9:35 AM 84.2 °F 100.6 °F 82.4 °F 94% 30.07 in 10.0 mi NW 4.6 mph - N/A   Clear
9:55 AM 86.0 °F 107.7 °F 84.2 °F 94% 30.06 in 10.0 mi WNW 4.6 mph - N/A   Clear
10:15 AM 86.0 °F 104.7 °F 82.4 °F 89% 30.07 in 10.0 mi West 5.8 mph - N/A   Clear
10:35 AM 87.8 °F 93.8 °F 71.6 °F 58% 30.07 in 10.0 mi NW 5.8 mph - N/A   Clear
10:55 AM 87.8 °F 93.8 °F 71.6 °F 58% 30.07 in 10.0 mi NW 4.6 mph - N/A   Clear
11:15 AM 89.6 °F 96.2 °F 71.6 °F 55% 30.07 in 10.0 mi West 5.8 mph - N/A   Clear
11:35 AM 89.6 °F 94.7 °F 69.8 °F 52% 30.07 in 10.0 mi West 8.1 mph - N/A   Clear
11:55 AM 89.6 °F 93.4 °F 68.0 °F 49% 30.07 in 10.0 mi NNW 6.9 mph - N/A   Scattered Clouds
12:15 PM 91.4 °F 96.8 °F 69.8 °F 49% 30.06 in 10.0 mi NW 9.2 mph - N/A   Scattered Clouds
12:35 PM 89.6 °F 94.7 °F 69.8 °F 52% 30.07 in 10.0 mi WNW 6.9 mph - N/A   Mostly Cloudy
12:55 PM 91.4 °F 95.4 °F 68.0 °F 46% 30.06 in 10.0 mi NW 4.6 mph - N/A   Scattered Clouds
1:15 PM 91.4 °F 95.4 °F 68.0 °F 46% 30.06 in 10.0 mi West 6.9 mph 10.4 mph N/A   Scattered Clouds
1:35 PM 93.2 °F 97.7 °F 68.0 °F 44% 30.06 in 10.0 mi NW 10.4 mph - N/A   Scattered Clouds
1:55 PM 93.2 °F 96.2 °F 66.2 °F 41% 30.05 in 10.0 mi NW 9.2 mph 16.1 mph N/A   Scattered Clouds
2:15 PM 95.0 °F 98.5 °F 66.2 °F 39% 30.05 in 10.0 mi WNW 8.1 mph - N/A   Scattered Clouds
2:35 PM 93.2 °F 96.2 °F 66.2 °F 41% 30.04 in 10.0 mi West 6.9 mph - N/A   Mostly Cloudy
2:55 PM 93.2 °F 96.2 °F 66.2 °F 41% 30.04 in 10.0 mi NW 9.2 mph - N/A   Mostly Cloudy
3:15 PM 95.0 °F 97.0 °F 64.4 °F 36% 30.03 in 10.0 mi NW 6.9 mph - N/A   Mostly Cloudy
3:35 PM 93.2 °F 97.7 °F 68.0 °F 44% 30.02 in 10.0 mi West 9.2 mph - N/A   Mostly Cloudy
3:55 PM 95.0 °F 99.5 °F 68.0 °F 41% 30.02 in 10.0 mi WNW 9.2 mph - N/A   Scattered Clouds
4:15 PM 95.0 °F 99.5 °F 68.0 °F 41% 30.01 in 10.0 mi West 8.1 mph - N/A   Mostly Cloudy
4:35 PM 93.2 °F 97.7 °F 68.0 °F 44% 30.01 in 10.0 mi NW 6.9 mph - N/A   Mostly Cloudy
4:55 PM 95.0 °F 99.5 °F 68.0 °F 41% 30.00 in 10.0 mi West 10.4 mph - N/A   Mostly Cloudy
5:15 PM 95.0 °F 99.5 °F 68.0 °F 41% 30.01 in 10.0 mi West 4.6 mph - N/A   Scattered Clouds
5:35 PM 91.4 °F 95.4 °F 68.0 °F 46% 30.00 in 10.0 mi WNW 9.2 mph - N/A   Scattered Clouds
5:55 PM 95.0 °F 98.5 °F 66.2 °F 39% 30.00 in 10.0 mi WNW 10.4 mph - N/A   Clear
6:15 PM 93.2 °F 96.2 °F 66.2 °F 41% 29.99 in 10.0 mi WNW 6.9 mph - N/A   Clear
6:35 PM 93.2 °F 97.7 °F 68.0 °F 44% 29.99 in 10.0 mi WNW 8.1 mph - N/A   Clear
6:55 PM 91.4 °F 95.4 °F 68.0 °F 46% 29.98 in 10.0 mi WNW 4.6 mph - N/A   Clear
7:15 PM 89.6 °F 94.7 °F 69.8 °F 52% 29.98 in 10.0 mi WNW 3.5 mph - N/A   Clear
7:35 PM 89.6 °F 94.7 °F 69.8 °F 52% 29.98 in 10.0 mi NW 3.5 mph - N/A   Clear
7:55 PM 87.8 °F 93.8 °F 71.6 °F 58% 29.99 in 10.0 mi Calm Calm - N/A   Clear
8:15 PM 87.8 °F 93.8 °F 71.6 °F 58% 29.99 in 10.0 mi Calm Calm - N/A   Clear
8:35 PM 84.2 °F 90.9 °F 73.4 °F 70% 29.99 in 10.0 mi Calm Calm - N/A   Clear
8:55 PM 82.4 °F 88.2 °F 73.4 °F 74% 30.00 in 10.0 mi Calm Calm - N/A   Clear
9:15 PM 82.4 °F 96.1 °F 82.4 °F 100% 30.00 in 10.0 mi Calm Calm - N/A   Clear
9:35 PM 80.6 °F 89.3 °F 80.6 °F 100% 30.00 in 10.0 mi Calm Calm - N/A   Clear
9:55 PM 80.6 °F 89.3 °F 80.6 °F 100% 30.00 in 10.0 mi Calm Calm - N/A   Clear
10:15 PM - - - N/A% 30.01 in 10.0 mi Calm Calm - N/A   Clear
10:35 PM - - - N/A% 30.00 in 7.0 mi Calm Calm - N/A   Clear
10:55 PM - - - N/A% 30.00 in 10.0 mi Calm Calm - N/A   Clear
11:15 PM - - - N/A% 30.00 in 10.0 mi Calm Calm - N/A   Clear
11:35 PM - - - N/A% 30.00 in 10.0 mi Calm Calm - N/A   Clear
11:55 PM - - - N/A% 30.00 in 10.0 mi Calm Calm - N/A   Clear